Milwaukee, WI

1:49 PM CDT on October 23, 2017 (GMT -0500)
Gen Mitchell International

Weather History for KMKE - October, 2017

Change the Weather History Date:

Thursday, October 12, 2017

  Actual Average Record
Temperature  
Mean Temperature 58 °F 52 °F  
Max Temperature 59 °F 61 °F 83 °F (1995)
Min Temperature 56 °F 44 °F 26 °F (1967)
Degree Days  
Heating Degree Days 7 13  
Month to date heating degree days 41 130  
Since 1 July heating degree days 113 282  
Cooling Degree Days 0 0  
Month to date cooling degree days 22 3  
Year to date cooling degree days 767 637  
Growing Degree Days 7 (Base 50)    
Moisture  
Dew Point 53 °F    
Average Humidity 84    
Maximum Humidity 93    
Minimum Humidity 75    
Precipitation  
Precipitation 0.00 in 0.08 in 0.83 in (1928)
Month to date precipitation 1.82 1.05  
Year to date precipitation 29.99 28.41  
Snow  
Snow 0.00 in 0.00 in 0.20 in (2006)
Month to date snowfall 0.0 0.1  
Since 1 July snowfall 0.0 0.1  
Since 1 September snowfall 0.0 0.1  
Snow Depth 0.00 in    
Sea Level Pressure  
Sea Level Pressure 30.16 in    
Wind  
Wind Speed 7 mph (SE)    
Max Wind Speed 14 mph    
Max Gust Speed 17 mph    
Visibility 10 miles    
Events      
T = Trace of Precipitation, MM = Missing Value Source: NWS Daily Summary

Daily Weather History Graph

Daily Weather History Graph

Search for Another Location

Airport or City:

Trip Planner

Search our weather history database for the weather conditions in past years. The results will help you decide how hot, cold, wet, or windy it might be!

Date:

Astronomy

Oct. 12, 2017 Rise Set
Actual Time 7:01 AM CDT 6:13 PM CDT
Civil Twilight 6:33 AM CDT 6:41 PM CDT
Nautical Twilight 6:00 AM CDT 7:14 PM CDT
Astronomical Twilight 5:27 AM CDT 7:47 PM CDT
Moon No Moon Rise 2:17 PM CDT (10/12)
Length of Visible Light 12h 08m
Length of Day
11h 11m
Waning Gibbous, 48% of the Moon is Illuminated
Oct 12
Waning Gibbous
Oct 19
New
Oct 27
First Quarter
Nov 4
Full
Nov 10
Last Quarter

Hourly Weather History & Observations

Time (CDT) Temp. Dew Point Humidity Pressure Visibility Wind Dir Wind Speed Gust Speed Precip Events Conditions
12:52 AM 57.0 °F 52.0 °F 83% 30.20 in 10.0 mi East 10.4 mph - N/A   Overcast
1:52 AM 57.0 °F 52.0 °F 83% 30.21 in 10.0 mi East 9.2 mph - N/A   Overcast
2:52 AM 57.0 °F 53.1 °F 87% 30.22 in 10.0 mi East 10.4 mph - N/A   Overcast
3:11 AM 57.0 °F 52.0 °F 83% 30.21 in 10.0 mi East 11.5 mph - N/A   Overcast
3:52 AM 55.9 °F 51.1 °F 84% 30.21 in 10.0 mi East 12.7 mph - N/A   Overcast
4:52 AM 55.9 °F 52.0 °F 87% 30.22 in 10.0 mi East 9.2 mph - N/A   Overcast
5:03 AM 57.0 °F 52.0 °F 83% 30.21 in 10.0 mi East 9.2 mph - N/A   Overcast
5:52 AM 57.0 °F 52.0 °F 83% 30.21 in 10.0 mi East 9.2 mph - N/A   Overcast
6:52 AM 57.0 °F 52.0 °F 83% 30.21 in 10.0 mi East 6.9 mph - N/A   Overcast
7:52 AM 57.0 °F 52.0 °F 83% 30.22 in 10.0 mi ESE 8.1 mph - N/A   Overcast
8:52 AM 57.0 °F 52.0 °F 83% 30.22 in 10.0 mi ESE 5.8 mph - N/A   Overcast
9:39 AM 57.0 °F 52.0 °F 83% 30.21 in 10.0 mi ESE 5.8 mph - N/A   Overcast
9:52 AM 57.0 °F 53.1 °F 87% 30.21 in 10.0 mi ESE 4.6 mph - N/A   Overcast
10:52 AM 57.9 °F 52.0 °F 81% 30.19 in 10.0 mi East 8.1 mph - N/A   Overcast
11:52 AM 59.0 °F 52.0 °F 78% 30.18 in 10.0 mi ESE 9.2 mph - N/A   Overcast
12:52 PM 57.0 °F 52.0 °F 83% 30.17 in 10.0 mi ESE 12.7 mph - N/A   Overcast
1:52 PM 57.0 °F 52.0 °F 83% 30.14 in 10.0 mi East 8.1 mph - N/A   Overcast
2:52 PM 57.0 °F 52.0 °F 83% 30.14 in 10.0 mi SE 5.8 mph - N/A   Overcast
3:52 PM 57.0 °F 52.0 °F 83% 30.14 in 10.0 mi Calm Calm - N/A   Overcast
4:26 PM 57.9 °F 52.0 °F 81% 30.12 in 10.0 mi Variable 3.5 mph - N/A   Overcast
4:52 PM 57.0 °F 52.0 °F 83% 30.12 in 10.0 mi Calm Calm - N/A   Overcast
5:52 PM 57.0 °F 52.0 °F 83% 30.12 in 10.0 mi SSE 5.8 mph - N/A   Overcast
6:40 PM 57.0 °F 53.1 °F 87% 30.12 in 10.0 mi SE 5.8 mph - N/A   Overcast
6:52 PM 57.0 °F 53.1 °F 87% 30.12 in 10.0 mi SE 6.9 mph - N/A   Overcast
7:24 PM 57.0 °F 54.0 °F 89% 30.11 in 10.0 mi SSE 5.8 mph - N/A   Overcast
7:52 PM 57.0 °F 55.0 °F 93% 30.11 in 10.0 mi South 4.6 mph - N/A   Overcast
8:50 PM 57.2 °F 55.4 °F 94% 30.11 in 10.0 mi South 4.6 mph - N/A   Overcast
8:51 PM 57.9 °F 55.0 °F 90% 30.12 in 10.0 mi South 4.6 mph - N/A   Overcast
9:11 PM 57.9 °F 55.0 °F 90% 30.11 in 10.0 mi South 6.9 mph - N/A   Overcast
9:52 PM 57.9 °F 55.0 °F 90% 30.11 in 9.0 mi South 8.1 mph - N/A   Overcast
10:52 PM 57.9 °F 55.0 °F 90% 30.11 in 7.0 mi South 5.8 mph - N/A   Overcast
11:34 PM 59.0 °F 55.0 °F 87% 30.11 in 7.0 mi SSW 5.8 mph - N/A   Overcast
11:52 PM 59.0 °F 55.0 °F 87% 30.12 in 8.0 mi SSW 6.9 mph - N/A   Overcast